Вернуться в каталог

STARLINK-36895

АктивенСвязьSSO
NORAD 68038·PAYLOAD·🇺🇸 United States

Запущен Mar 1, 2026 с Vandenberg Space Force Base

Loading…

Ближайшие Пролёты (ближайшие 24 часа)

TLE

СвежийSource: CelesTrak SupGP

Эпоха: Sep 15, 2026, 03:23 UTC

1 68038C 26040Z   26258.14145833  .00043229  00000+0  13424-2 0  2582
2 68038  97.2854 205.5851 0001852  97.5454  78.2479 15.33405624    19

Отслеживайте STARLINK-36895 в реальном времени с AllMySat

Download on the App Store